Probability
0 0 0 0 0 0 0 0 0 0 0 0 0 0 0 0 0 0 0 0 1 2 2 2 3 3 3 3 3 4 4 4 3 3 3 3 3 3 3 3 3 3 4 5
0 0 0 0 0 0 0 0 0 0 0 0 0 0 0 0 0 0 0 0 0 1 1 1 2 3 3 3 3 4 4 4 3 3 3 3 3 3 3 3 3 3 3 4
0 0 0 0 0 0 0 0 0 0 0 0 0 0 0 0 0 0 0 0 0 0 0 0 1 2 3 3 3 3 4 4 4 3 3 3 3 3 3 3 3 3 3 3
0 0 0 0 0 0 0 0 0 0 0 0 0 0 0 0 0 0 0 0 0 0 0 0 0 1 2 3 3 3 3 4 4 4 3 3 3 3 3 3 3 3 3 3
0 0 0 0 0 0 0 0 0 0 0 0 0 0 0 0 0 0 0 0 0 0 0 0 0 0 1 2 3 3 3 3 4 4 4 3 3 3 3 3 3 3 3 3
0 0 0 0 0 0 0 0 0 0 0 0 0 0 0 0 0 0 0 0 0 0 0 0 0 0 0 1 1 2 3 3 3 4 5 4 3 3 3 3 3 3 3 3
0 0 0 0 0 0 0 0 0 0 0 0 0 0 0 0 0 0 0 0 0 0 0 0 0 0 0 0 0 1 1 2 3 4 5 4 3 3 3 3 3 3 3 2
0 0 0 0 0 0 0 0 0 0 0 0 0 0 0 0 0 0 0 0 0 0 0 0 0 0 0 0 0 0 0 1 1 2 3 3 3 2 2 2 2 2 1 1
0 0 0 0 0 0 0 0 0 0 0 0 0 0 0 0 0 0 0 0 0 0 0 0 0 0 0 0 0 0 0 0 0 1 1 1 1 1 1 0 1 1 0 0
0 0 0 0 0 0 0 0 0 0 0 0 0 0 0 0 0 0 0 0 0 0 0 0 0 0 0 0 0 0 0 0 0 0 0 0 0 0 0 0 0 0 0 0
0 0 0 0 0 0 0 0 0 0 0 0 0 0 0 0 0 0 0 0 0 0 0 0 0 0 0 0 0 0 0 0 0 0 0 0 0 0 0 0 0 0 0 0
0 0 0 0 0 0 0 0 0 0 0 0 0 0 0 0 0 0 0 0 0 0 0 0 0 0 0 0 0 0 0 0 0 0 0 0 0 0 0 0 0 0 0 0
0 0 0 0 0 0 0 0 0 0 0 0 0 0 0 0 0 0 0 0 0 0 0 0 0 0 0 0 0 0 0 0 0 0 0 0 0 0 0 0 0 0 0 0
0 0 0 0 0 0 0 0 0 0 0 0 0 0 0 0 0 0 0 0 0 0 0 0 0 0 0 0 0 0 0 0 0 0 0 0 0 0 0 0 0 0 0 0
0 0 0 0 0 0 0 0 0 0 0 0 0 0 0 0 0 0 0 0 0 0 0 0 0 0 0 0 0 0 0 0 0 0 0 0 0 0 0 0 0 0 0 0
0 0 0 0 0 0 0 0 0 0 0 0 0 0 0 0 0 0 0 0 0 0 0 0 0 0 0 0 0 0 0 0 0 0 0 0 0 0 0 0 0 0 0 0
0 0 0 0 0 0 0 0 0 0 0 0 0 0 0 0 0 0 0 0 0 0 0 0 0 0 0 0 0 0 0 0 0 0 0 0 0 0 0 0 0 0 0 0
0 0 0 0 0 0 0 0 0 0 0 0 0 0 0 0 0 0 0 0 0 0 0 0 0 0 0 0 0 0 0 0 0 0 0 0 0 0 0 0 0 0 0 0
0 0 0 0 0 0 0 0 0 0 0 0 0 0 0 0 0 0 0 0 0 0 0 0 0 0 0 0 0 0 0 0 0 0 0 0 0 0 0 0 0 0 0 0
0 0 0 0 0 0 0 0 0 0 0 0 0 0 0 0 0 0 0 0 0 0 0 0 0 0 0 0 0 0 0 0 0 0 0 0 0 0 0 0 0 0 0 0
0 0 0 0 0 0 0 0 0 0 0 0 0 0 0 0 0 0 0 0 0 0 0 0 0 0 0 0 0 0 0 0 0 0 0 0 0 0 0 0 0 0 0 0
0 0 0 0 0 0 0 0 0 0 0 0 0 0 0 0 0 0 0 0 0 0 0 0 0 0 0 0 0 0 0 0 0 0 0 0 0 0 0 0 0 0 0 0
0 0 0 0 0 0 0 0 0 0 0 0 0 0 0 0 0 0 0 0 0 0 0 0 0 0 0 0 0 0 0 0 0 0 0 0 0 0 0 0 0 0 0 0
0 0 0 0 0 0 0 0 0 0 0 0 0 0 0 0 0 0 0 0 0 0 0 0 0 0 0 0 0 0 0 0 0 0 0 0 0 0 0 0 0 0 0 0
0 0 0 0 0 0 0 0 0 0 0 0 0 0 0 0 0 0 0 0 0 0 0 0 0 0 0 0 0 0 0 0 0 0 0 0 0 0 0 0 0 0 0 0
0 0 0 0 0 0 0 0 0 0 0 0 0 0 0 0 0 0 0 0 0 0 0 0 0 0 0 0 0 0 0 0 0 0 0 0 0 0 0 0 0 0 0 0
Wind_Speed
1 2 5 8 9 5 3 4 5 5 2 2 6 10 11 7 5 6 6 6 5 5 4 2 1 0 1 1 1 2 2 2 2 2 2 3 3 2 2 3 3 4 4 4
2 6 8 3 4 4 4 5 6 5 2 3 6 11 9 7 6 6 7 6 5 4 3 2 1 1 1 1 1 1 2 2 2 2 2 1 2 2 2 2 2 3 4 4
7 4 3 4 3 5 6 7 6 5 3 2 4 9 6 5 4 4 4 4 3 3 3 1 1 0 1 1 1 1 1 1 2 2 2 2 2 1 1 1 2 3 4 4
5 4 1 3 4 5 7 6 6 5 3 4 1 7 7 4 5 5 5 3 3 2 1 1 0 0 1 1 1 1 1 1 1 2 3 3 2 2 2 1 2 3 4 4
5 3 3 4 5 5 5 2 4 4 4 5 3 5 9 2 5 7 5 4 3 2 2 1 1 2 1 1 1 1 1 1 1 2 3 3 1 1 0 0 1 2 3 4
5 2 3 4 2 3 2 2 1 1 1 7 7 7 9 5 7 5 4 3 2 2 1 1 1 1 1 1 1 1 1 1 1 2 2 2 2 1 0 0 1 1 1 2
4 3 2 2 1 1 2 3 1 2 2 8 3 6 11 7 6 5 4 3 2 1 1 1 1 1 1 1 1 1 1 1 1 1 1 2 2 2 3 2 2 2 2 2
3 6 4 3 4 5 4 5 6 5 6 5 3 9 8 5 3 2 2 2 2 2 1 2 1 1 1 1 0 0 0 0 0 1 1 1 1 1 2 2 2 3 3 3
5 6 2 2 1 5 4 4 3 3 0 3 6 7 8 3 2 1 1 1 2 3 2 2 2 1 1 1 1 0 0 0 0 1 1 1 1 1 1 2 1 2 2 2
4 5 3 2 1 0 3 4 3 4 4 6 6 6 6 4 4 3 2 3 3 2 2 3 3 3 2 1 1 1 1 0 1 1 1 1 1 1 1 1 2 2 2 2
3 4 3 1 5 6 4 3 3 3 3 4 5 7 4 5 3 3 3 3 1 1 2 3 3 3 3 3 3 3 2 2 2 1 1 1 1 1 1 1 2 2 2 1
3 2 4 6 3 3 4 6 6 5 5 4 4 8 2 2 2 2 2 1 1 1 2 2 3 3 4 4 4 3 3 3 3 2 2 2 2 2 1 1 2 1 1 1
4 3 2 4 2 1 3 4 5 4 3 5 6 9 2 1 1 1 0 0 1 2 2 3 3 3 3 3 3 3 3 4 3 2 2 2 2 2 2 2 2 1 1 1
3 4 7 9 6 4 5 6 6 6 6 7 11 10 6 4 3 2 1 1 1 1 2 2 2 3 3 3 3 3 4 4 3 2 2 2 2 2 2 2 2 2 1 1
3 5 7 8 6 5 8 9 10 11 11 10 11 11 11 7 5 3 2 2 2 2 2 2 3 3 3 3 3 3 3 4 3 3 3 3 3 3 2 2 2 2 2 1
2 5 4 7 6 6 9 12 13 14 12 13 12 14 7 3 1 2 2 2 3 3 3 3 3 3 4 4 4 4 4 4 4 3 3 3 3 3 3 3 2 2 2 2
4 4 3 6 3 2 10 12 12 10 9 10 15 14 3 3 4 5 4 3 3 4 4 3 3 3 4 4 4 4 4 4 3 3 3 3 3 3 3 3 3 2 3 2
6 4 3 2 0 10 10 3 8 10 8 8 6 4 4 5 4 2 1 1 2 3 3 4 4 4 4 4 4 4 3 3 3 3 3 4 4 3 3 3 3 3 2 2
7 7 4 4 6 10 8 3 4 7 9 7 7 5 3 2 1 2 0 1 1 2 3 3 3 3 3 3 4 3 3 3 3 3 4 4 4 4 3 3 3 3 2 2
4 5 5 4 5 9 7 3 2 2 7 3 4 5 3 1 3 4 2 2 3 3 3 3 3 3 3 3 3 3 3 3 3 4 4 4 4 3 3 3 3 3 2 2
4 4 7 8 8 10 6 2 3 5 7 1 3 4 4 4 4 3 2 3 3 3 3 3 3 3 3 3 3 3 3 4 4 4 4 4 4 4 3 3 3 2 2 2
8 7 7 6 7 11 1 3 5 4 2 1 1 1 2 2 2 2 2 2 3 3 4 4 3 4 4 3 3 3 3 4 4 4 4 4 4 4 3 2 2 2 2 2
7 7 6 8 8 2 2 3 2 1 1 2 1 2 1 2 2 2 3 3 3 3 4 4 3 4 4 4 3 3 4 4 4 4 4 4 4 3 3 2 2 2 1 1
4 1 3 4 5 3 2 1 2 2 2 2 1 1 1 1 2 2 2 2 3 3 4 4 4 4 5 5 4 3 3 3 3 3 3 3 3 3 3 2 2 1 1 1
4 3 3 4 4 2 3 2 2 2 2 2 2 1 0 0 1 1 2 2 2 3 3 3 3 3 4 5 4 4 3 3 3 3 3 3 3 2 2 2 2 3 2 3
3 4 5 6 5 4 5 3 1 1 2 2 1 2 2 1 1 1 1 2 2 3 3 4 4 4 4 5 4 4 3 2 2 2 3 2 2 2 2 2 3 4 4 5
Wind_Direction
96 118 213 219 213 217 204 204 239 254 262 250 253 265 273 276 264 260 262 261 259 263 281 305 280 157 110 109 127 146 147 152 137 150 171 179 198 193 189 198 195 186 183 180
76 241 236 225 212 227 235 245 256 276 269 239 271 272 268 259 245 242 246 248 252 271 310 333 359 66 112 147 149 146 153 156 166 172 168 172 165 183 194 196 198 195 190 190
201 247 211 184 210 222 237 229 235 254 307 289 304 289 261 266 254 262 248 237 240 240 259 280 318 174 128 145 185 180 174 152 158 132 112 88 81 79 146 206 207 205 200 199
241 260 215 209 226 206 244 229 224 240 261 276 243 288 278 259 279 271 262 247 247 262 271 284 282 286 222 227 210 189 170 144 141 134 128 135 153 191 223 223 215 213 207 206
242 237 211 217 231 198 227 206 203 226 230 268 235 251 277 274 267 263 257 250 251 251 238 260 261 234 241 232 192 202 150 142 137 142 148 157 170 206 232 325 254 230 217 214
252 249 207 213 224 186 162 82 43 46 164 255 222 213 269 226 227 249 257 256 264 268 261 275 300 346 22 32 50 82 121 131 128 145 158 171 179 168 132 277 253 268 252 229
283 259 240 179 109 85 117 123 349 308 255 248 201 219 251 239 228 223 238 257 282 284 271 296 330 357 3 17 14 49 99 104 119 154 191 205 203 196 204 220 229 243 258 251
225 266 220 200 185 184 200 176 187 215 233 272 233 237 252 248 246 236 230 241 281 292 290 276 277 292 300 310 340 34 89 48 85 211 244 244 229 218 229 230 227 233 242 249
202 250 294 250 230 158 170 207 194 160 268 274 255 268 290 259 277 280 281 287 276 282 290 289 302 314 309 317 318 301 356 6 319 271 287 284 276 261 257 256 240 245 256 264
184 249 267 282 38 291 170 157 137 165 194 247 265 255 246 236 247 257 270 273 286 318 332 334 331 332 338 345 341 356 357 305 319 319 301 302 293 282 274 269 265 263 266 262
186 216 270 238 200 198 165 174 176 183 200 204 255 262 237 227 229 234 265 281 276 313 327 335 339 352 9 16 11 8 2 359 353 339 328 327 314 309 304 282 279 278 287 276
183 193 247 245 241 220 206 194 172 192 234 227 247 265 277 215 238 230 260 294 338 358 350 350 358 8 14 14 8 6 3 354 345 345 347 339 338 339 334 314 305 303 300 297
163 174 275 319 313 224 229 218 210 208 204 216 231 260 302 8 337 335 302 332 348 3 2 3 5 1 359 359 357 354 355 345 344 357 357 351 350 341 329 328 330 329 326 326
178 195 206 224 240 218 236 238 217 196 217 233 235 253 271 273 270 299 307 297 320 343 354 349 342 344 346 348 348 344 343 344 347 359 356 347 337 324 321 329 334 329 331 331
175 219 231 250 257 242 243 239 222 222 224 229 247 249 253 245 247 253 261 293 321 333 337 328 328 335 338 341 343 344 342 342 342 349 348 337 334 336 342 347 347 345 344 329
192 222 233 259 252 252 260 249 233 232 235 242 258 263 255 254 255 247 248 270 292 305 311 318 329 331 330 332 332 336 336 335 337 341 337 336 342 346 347 343 343 347 345 341
194 191 209 256 275 301 257 233 221 225 220 216 237 251 256 257 244 240 242 252 272 291 302 312 317 315 322 325 328 326 326 330 335 340 340 340 343 343 338 336 345 345 337 336
191 192 207 243 202 240 246 207 210 222 235 226 245 267 255 250 266 271 233 230 284 305 321 320 320 321 325 328 330 329 336 337 339 345 343 341 341 339 336 340 343 336 330 327
204 190 191 200 239 265 281 246 192 208 248 231 235 253 275 289 354 293 348 341 285 302 317 318 322 320 330 337 334 339 349 347 349 344 338 337 334 332 333 335 330 323 321 326
201 192 194 202 226 244 257 258 227 176 263 249 213 225 241 193 243 264 333 349 337 344 347 344 340 340 349 342 343 351 346 344 340 335 332 333 332 329 325 322 319 319 320 320
175 199 213 219 235 256 267 273 135 181 255 281 202 216 215 224 242 266 325 342 347 352 350 352 351 350 347 344 350 351 347 335 334 336 334 336 337 332 324 328 327 325 330 334
186 189 203 198 225 250 251 132 184 230 326 345 292 258 252 268 289 311 331 340 353 354 352 355 357 351 353 353 354 351 343 338 342 341 340 339 340 336 335 338 332 331 335 340
206 203 200 203 221 243 152 177 249 307 280 296 298 299 254 276 289 315 328 342 351 353 350 355 358 351 352 354 356 351 337 341 343 345 343 340 341 340 335 329 327 336 334 323
250 246 197 236 249 243 220 243 322 322 297 309 321 298 272 259 283 315 323 340 353 348 346 352 356 348 341 347 352 346 335 338 340 341 337 337 343 344 343 336 326 320 309 300
232 195 208 241 265 296 262 262 277 317 347 357 357 349 336 280 297 309 317 333 338 337 339 344 341 331 329 336 339 339 338 343 344 337 332 335 338 338 344 344 329 314 298 277
202 191 201 231 232 229 255 259 258 288 304 309 329 345 354 356 293 318 318 326 326 328 332 333 334 329 325 327 327 330 332 336 339 330 333 335 335 335 337 339 339 339 325 325